Location: Godzisko
(49.9648°N, 19.4576°E)
Time: 02:27:08
(UTC+00:00)

Cosmos 2082 Rocket - Pass Details

Date: 20 April 2021
Orbit: 835 x 852 km, 71.0° (Epoch: 07 May)

Event Time Altitude Azimuth Distance (km) Brightness Sun altitude
Rises 01:12:23 0° 328° (NNW) 3,399 5.6 -20.2°
Reaches altitude 10° 01:14:52 10° 325° (NW) 2,459 4.8 -19.9°
Maximum altitude 01:20:22 57° 248° (WSW) 978 2.2 -19.3°
Enters shadow 01:23:52 22° 177° (S) 1,735 3.4 -18.9°
